map of WPR home
WPR - Airport
Location
City:  Porvenir, Isla Tierra del Fuego, Magallanes y de la Antártica Chilena, Chile
Name:Capitán Fuentes Martinez Airport
ICAO:SCFM
IATA:WPR

Details
Type:Airport (Aerodrome, Airfield)
Use:Public/Civil
Latitude:53°15'13"S (-53.253610)
Longitude:70°19'09"W (-70.319166)
Elevation:104 ft (32 m)
Variation:12.84°E (WMM2015v2 magnetic declination)
-0.08° annual change
Runways:2
Longest:8202 × 98 ft (2500 × 30 m), paved

Time
Time Zone:UTC-4 (DST-3)
Local Time:

Weather
METAR:SCFM 041400Z 36008KT CAVOK 20/09 Q1012

Related Locations
Nearby:
Farthest:UIAO: 12407 mi / 19967 km
Barguzin, BU, RU

Find:

   beyond  
but within

Other Information
Maps:
NOTAMs:
Links:
Sources:

  
  • flag of Chile
  • flag of Magallanes y de la Antártica Chilena
  

Sectional Chart

Flight Planning
at skyvector.com

Satellite Image

Google Maps Satellite view

 

Copyright © 2004-2019 Karl L. Swartz. All rights reserved.
The Great Circle Mapper name and logo are trademarks of the Great Circle Mapper.
All other trademarks mentioned herein belong to their respective owners.
Please see credits for attibutions and further copyright information.

  Follow gcmap on Facebook Follow gcmap on Twitter GCmap on LinkedIn

hCard Microformat

Geo Microformat